Retour au catalogue

COSMOS 1176 FUEL CORE

ActifLEO
NORAD 11971·DEBRIS·🇷🇺 Russia

Lancé Apr 29, 1980 depuis Baikonur Cosmodrome

Loading…

Prochains Passages (prochaines 24 heures)

TLE

FraisSource: Space-Track

Époque: Sep 14, 2026, 06:25 UTC

1 11971U 80034D   26257.26789681 -.00000100  00000-0 -50167-5 0  9990
2 11971  64.8326 204.2457 0038589 208.2891 300.5202 13.96933582358059

Suivez COSMOS 1176 FUEL CORE en temps réel avec AllMySat

Download on the App Store